[[{"header":{"parameterUnit":"m.s-1","parameterCategory":1,"la1":30.2991,"la2":30.254,"lo1":-89.0895,"lo2":-89.0444,"dy":0.0017,"dx":0.0017,"nx":28,"ny":28,"refTime":"2024-11-24T03:00:00:Z","depth":0,"parameterNumber":2,"parameterNumberName":"U-component_of_WINDS"},"data":[0,0,0,0,0,0,0,0,0,0,0,0,0,0,0,0,0,0,0,0,0,0,0,0,0,0,0,0,0,0,0,0,0,0,0,0,0,0,0,0,0,0,0,0,0,0,0,0,0,0,0,0,0,0,0,0,0,0,1.3127,1.3128,0,1.3225,1.3226,1.3227,1.3201,1.3199,1.3197,1.3195,1.33,1.3304,1.3309,0,0,0,0,0,0,0,0,0,0,0,0,0,1.2919,1.2923,1.3126,1.3128,1.3129,1.3225,1.3226,1.3228,1.3201,1.3199,1.3197,1.3194,1.3298,1.3304,1.3309,0,0,0,0,0,0,0,0,0,0,0,0,0,1.3013,1.2924,1.3126,1.3127,1.3128,1.3225,1.3226,1.3228,1.3202,1.3199,1.3196,1.3193,1.3296,1.3303,1.331,1.3412,0,0,1.3331,1.3334,0,0,0,0,0,0,0,0,1.3007,1.302,1.3126,1.3127,1.3129,1.3198,1.3191,1.329,1.3203,1.3174,1.3195,1.3192,1.3269,1.3278,1.3303,1.3417,1.3422,1.3332,1.3336,1.3339,1.3341,0,0,0,0,0,0,0,1.3001,1.3016,1.3166,1.3128,1.3129,1.3124,1.3134,1.321,1.3237,1.3176,1.3175,1.3187,1.3269,1.3296,1.3305,1.3423,1.3332,1.3338,1.3342,1.3345,1.3627,1.3631,0,0,0,0,0,0,1.2993,1.3011,1.3162,1.3169,1.3059,1.313,1.3141,1.3179,1.3236,1.3242,1.3189,1.3185,1.3286,1.3297,1.3308,1.3432,1.3339,1.3346,1.335,1.3624,1.3628,1.3632,0,0,0,0,0,0,1.2989,1.3007,1.3158,1.3089,1.3108,1.3137,1.3179,1.3182,1.3209,1.3245,1.325,1.3212,1.3284,1.3299,1.3387,1.3436,1.3349,1.3355,1.362,1.3625,1.363,1.3681,0,0,0,0,0,0,1.2983,1.3005,1.3043,1.309,1.3112,1.3234,1.3182,1.3186,1.3221,1.3217,1.3268,1.3274,1.3283,1.3376,1.3394,1.3444,1.336,1.3616,1.3623,1.3628,1.3675,1.3687,1.3697,0,0,0,0,0,1.2975,1.3054,1.3046,1.3064,1.316,1.3237,1.3249,1.3257,1.3225,1.3264,1.3288,1.3272,1.3427,1.3386,1.3405,1.3458,1.3613,1.3621,1.3628,1.367,1.3684,1.3697,0,0,0,0,0,0,1.3014,1.306,1.3051,1.3147,1.3188,1.3232,1.3282,1.3272,1.3323,1.3317,1.3326,1.3338,1.3427,1.3451,1.3404,1.356,1.3516,1.3527,1.3541,1.3555,1.3566,1.3559,1.3366,0,0,0,0,0,1.3033,1.309,1.3129,1.321,1.3231,1.3253,1.3287,1.3289,1.3332,1.3349,1.3379,1.3422,1.3481,1.3519,1.3575,1.3678,1.3689,1.3724,1.3735,1.3744,1.3754,1.3811,1.3827,1.3657,1.3656,1.3656,0,0,1.3074,1.3107,1.3143,1.3218,1.325,1.331,1.3268,1.3333,1.3378,1.336,1.3444,1.3468,1.3517,1.3612,1.3656,1.3635,1.3804,1.3754,1.376,1.3766,1.382,1.3837,1.3851,1.3662,1.3661,1.366,0,0,1.3179,1.321,1.3281,1.3314,1.3362,1.3376,1.3394,1.3439,1.3454,1.3539,1.3526,1.3581,1.3681,1.3717,1.3748,1.3868,1.3856,1.3886,1.3945,1.4,1.4013,1.4025,1.4069,1.4084,1.3896,1.3896,1.3896,0,1.3225,1.3314,1.3319,1.3386,1.342,1.3405,1.3478,1.351,1.3575,1.3599,1.3574,1.37,1.3732,1.3837,1.3866,1.3892,1.3912,1.388,1.4011,1.4023,1.4034,1.4076,1.4092,1.39,1.3899,1.3899,1.3898,0,1.3367,1.3429,1.3481,1.3543,1.3583,1.3653,1.367,1.371,1.3709,1.3726,1.3814,1.3851,1.3915,1.394,1.394,1.4045,1.403,1.4008,1.3964,1.4054,1.4093,1.4109,1.3904,1.3903,1.3902,1.3901,0,0,1.3499,1.3563,1.3582,1.361,1.3663,1.3712,1.3781,1.3842,1.3877,1.3923,1.3982,1.4067,1.4047,1.4083,1.4087,1.4136,1.4229,1.4108,1.4109,1.4129,1.4348,1.4364,1.4382,1.4221,1.4224,1.4227,1.4344,0,1.3609,1.373,1.3737,1.3847,1.3905,1.3892,1.3953,1.3993,1.4011,1.4064,1.4085,1.4146,1.4114,1.4136,1.4183,1.4207,1.4273,1.4199,1.4278,1.428,1.4266,1.4403,1.442,1.4529,1.4359,1.4362,1.4364,0,1.3753,1.3802,1.3918,1.3963,1.3988,1.4042,1.4099,1.415,1.4195,1.4205,1.4245,1.4242,1.4315,1.4268,1.4369,1.4319,1.4351,1.4368,1.4373,1.438,1.4327,1.4415,1.4563,1.458,1.4388,1.4386,1.4384,0,1.3838,1.3933,1.4015,1.4039,1.4094,1.4133,1.4158,1.42,1.4236,1.4287,1.4311,1.437,1.4402,1.4448,1.4462,1.4426,1.4563,1.4517,1.4574,1.4574,1.4603,1.4601,1.4759,1.4624,1.4624,1.4623,1.4623,0,1.396,1.4031,1.4053,1.4104,1.4184,1.4192,1.4272,1.4294,1.4332,1.4388,1.4381,1.4433,1.4448,1.4504,1.4515,1.4597,1.4612,1.4623,1.4625,1.4624,1.4622,1.4645,1.4638,1.4628,1.4627,1.4626,1.4625,0,1.4068,1.4085,1.4173,1.4218,1.4231,1.4288,1.4327,1.4376,1.4394,1.4464,1.4481,1.4509,1.4574,1.4593,1.4671,1.4679,1.4775,1.4771,1.476,1.476,1.4816,1.4811,1.4995,1.502,1.4868,1.4869,1.487,0,1.4144,1.4199,1.4249,1.4286,1.4312,1.437,1.4408,1.4419,1.4458,1.4514,1.4557,1.4621,1.4673,1.4777,1.4806,1.4866,1.4863,1.4923,1.4872,1.4869,1.4864,1.4861,1.4866,1.4933,1.4934,1.4936,1.4937,0,1.4278,1.4285,1.4338,1.4395,1.444,1.4485,1.4529,1.456,1.4577,1.4622,1.4688,1.4728,1.4808,1.4872,1.4933,1.496,1.4952,1.4953,1.4969,1.4968,1.496,1.4965,1.4787,1.4948,1.4947,1.4946,1.4946,1.4945,1.4373,1.4421,1.4465,1.4525,1.4559,1.46,1.4649,1.4672,1.4727,1.4793,1.4796,1.4868,1.4914,1.4994,1.5025,1.5082,1.5064,1.5088,1.5094,1.51,1.5105,1.4951,1.5093,1.5093,1.5093,1.5092,1.5092,0,1.4507,1.4534,1.459,1.4651,1.4699,1.4687,1.4735,1.4776,1.4839,1.4881,1.4932,1.5009,1.5071,1.5104,1.5167,1.5206,1.5204,1.5222,1.522,1.5226,1.5117,1.5096,1.5223,1.5223,1.5223,1.5223,1.5223,1.5223,1.4582,1.4663,1.4675,1.4774,1.4801,1.4871,1.4899,1.4938,1.4972,1.5057,1.5109,1.513,1.5169,1.5235,1.5292,1.53,1.5323,1.5344,1.535,1.5247,1.5234,1.5221,1.5202,1.5349,1.5349,1.5455,1.5456,1.5456]},{"header":{"parameterUnit":"m.s-1","parameterCategory":1,"la1":30.2991,"la2":30.254,"lo1":-89.0895,"lo2":-89.0444,"dy":0.0017,"dx":0.0017,"nx":28,"ny":28,"refTime":"2024-11-24T03:00:00:Z","depth":0,"parameterNumber":3,"parameterNumberName":"V-component_of_WINDS"},"data":[0,0,0,0,0,0,0,0,0,0,0,0,0,0,0,0,0,0,0,0,0,0,0,0,0,0,0,0,0,0,0,0,0,0,0,0,0,0,0,0,0,0,0,0,0,0,0,0,0,0,0,0,0,0,0,0,0,0,5.4717,5.4717,0,5.479,5.4791,5.4792,5.4761,5.476,5.4758,5.4756,5.4823,5.4826,5.4829,0,0,0,0,0,0,0,0,0,0,0,0,0,5.4541,5.4544,5.4716,5.4717,5.4718,5.479,5.4791,5.4792,5.4762,5.4759,5.4757,5.4755,5.4821,5.4825,5.483,0,0,0,0,0,0,0,0,0,0,0,0,0,5.4616,5.4545,5.4716,5.4712,5.4712,5.479,5.4791,5.4792,5.4762,5.4759,5.4757,5.4754,5.482,5.4825,5.483,5.4913,0,0,5.4846,5.4848,0,0,0,0,0,0,0,0,5.4611,5.4622,5.4712,5.4712,5.4713,5.4764,5.4753,5.4832,5.4763,5.4743,5.4756,5.4753,5.4805,5.4811,5.483,5.4916,5.4919,5.4846,5.4849,5.4851,5.4853,0,0,0,0,0,0,0,5.4606,5.4619,5.4745,5.4713,5.4714,5.4703,5.4711,5.4768,5.4787,5.4744,5.4742,5.4752,5.4804,5.4825,5.4831,5.492,5.4846,5.485,5.4853,5.4855,5.5078,5.5081,0,0,0,0,0,0,5.4602,5.4615,5.4743,5.4747,5.4655,5.4709,5.4717,5.475,5.4786,5.479,5.4754,5.475,5.4818,5.4825,5.4833,5.4933,5.4851,5.4856,5.4859,5.5075,5.5078,5.5082,0,0,0,0,0,0,5.4599,5.4614,5.474,5.4681,5.4696,5.4715,5.4751,5.4753,5.4774,5.4794,5.4796,5.4773,5.4816,5.4826,5.4894,5.4935,5.4858,5.4863,5.5072,5.5076,5.508,5.5134,0,0,0,0,0,0,5.4594,5.4613,5.4647,5.4682,5.4699,5.4802,5.4754,5.4756,5.4784,5.4779,5.4812,5.4815,5.4815,5.4887,5.4899,5.4941,5.4867,5.5068,5.5074,5.5079,5.5128,5.5139,5.5149,0,0,0,0,0,5.4587,5.4657,5.4649,5.4664,5.4743,5.4805,5.4814,5.4816,5.4787,5.482,5.4833,5.4814,5.4929,5.4894,5.4908,5.4951,5.5065,5.5072,5.5078,5.5124,5.5137,5.5148,0,0,0,0,0,0,5.4622,5.4661,5.4653,5.4736,5.4768,5.48,5.4841,5.483,5.4868,5.4862,5.4859,5.4867,5.4937,5.4951,5.4911,5.5034,5.4992,5.5002,5.5022,5.5035,5.5045,5.504,5.4871,0,0,0,0,0,5.4641,5.4691,5.4721,5.4791,5.4808,5.4822,5.4849,5.4848,5.4879,5.4891,5.4909,5.4938,5.498,5.5008,5.5049,5.513,5.5136,5.5167,5.5177,5.5185,5.5193,5.5237,5.5251,5.5103,5.5103,5.5103,0,0,5.4677,5.4705,5.4736,5.4799,5.4824,5.4873,5.4833,5.4887,5.4923,5.4898,5.4965,5.4979,5.501,5.5086,5.5119,5.5099,5.5236,5.5193,5.52,5.5203,5.5245,5.5259,5.5271,5.5107,5.5106,5.5106,0,0,5.4769,5.4796,5.4858,5.4884,5.4923,5.4932,5.4947,5.4981,5.499,5.5057,5.504,5.5081,5.5154,5.5178,5.5199,5.5302,5.5285,5.5314,5.5367,5.541,5.5421,5.5432,5.5468,5.5481,5.5322,5.5322,5.5323,0,5.4809,5.4886,5.489,5.4947,5.4974,5.4958,5.5019,5.5043,5.5091,5.5109,5.5087,5.518,5.5199,5.528,5.5305,5.5323,5.5338,5.531,5.542,5.543,5.544,5.5474,5.5488,5.5326,5.5325,5.5325,5.5325,0,5.4933,5.4987,5.5031,5.5083,5.5115,5.5173,5.5184,5.5215,5.5211,5.5222,5.5289,5.5313,5.5358,5.5377,5.5372,5.5457,5.5443,5.5421,5.5379,5.5457,5.5489,5.5503,5.5331,5.5329,5.5328,5.5328,0,0,5.5048,5.5103,5.5119,5.5142,5.5184,5.5224,5.5281,5.5328,5.5355,5.5389,5.5435,5.5498,5.5478,5.5503,5.55,5.5538,5.5617,5.551,5.5511,5.5529,5.571,5.5727,5.5742,5.5606,5.5609,5.5611,5.5708,0,5.5144,5.5248,5.5253,5.5345,5.5394,5.538,5.5429,5.5458,5.5469,5.551,5.5521,5.5566,5.5536,5.5551,5.5587,5.5599,5.5653,5.5592,5.5647,5.5649,5.564,5.5759,5.5777,5.5868,5.572,5.5722,5.5724,0,5.5269,5.5311,5.541,5.5446,5.5466,5.5511,5.5554,5.5594,5.5626,5.5632,5.566,5.5652,5.5708,5.5665,5.574,5.5699,5.5721,5.5731,5.5734,5.5739,5.5691,5.5767,5.5897,5.591,5.5744,5.5742,5.5741,0,5.5343,5.5424,5.5494,5.5514,5.5557,5.5589,5.5607,5.5638,5.5666,5.5703,5.5721,5.5763,5.5785,5.5817,5.5819,5.5788,5.5895,5.5852,5.5899,5.5899,5.5922,5.592,5.6057,5.5937,5.5937,5.5937,5.5936,0,5.5449,5.551,5.5528,5.5571,5.5638,5.5642,5.5707,5.5723,5.575,5.5794,5.5782,5.5822,5.5824,5.5864,5.5867,5.5928,5.5938,5.5943,5.5942,5.5944,5.5943,5.5958,5.5952,5.594,5.5939,5.5939,5.5938,0,5.5543,5.5558,5.5633,5.5669,5.568,5.5727,5.5756,5.5796,5.5807,5.5862,5.5875,5.589,5.5938,5.5944,5.5998,5.5999,5.6074,5.6067,5.6064,5.6063,5.6109,5.6105,5.626,5.628,5.6147,5.6148,5.6149,0,5.561,5.5657,5.5699,5.573,5.5751,5.5799,5.5829,5.5834,5.5865,5.5906,5.594,5.5987,5.6025,5.61,5.6115,5.6156,5.615,5.6201,5.6155,5.6155,5.615,5.6147,5.6151,5.621,5.6211,5.6212,5.6213,0,5.5727,5.5732,5.5777,5.5825,5.5862,5.5899,5.5934,5.5958,5.5967,5.6002,5.6052,5.6082,5.6139,5.6185,5.6226,5.6242,5.6229,5.6228,5.6241,5.6242,5.6239,5.6241,5.6088,5.6224,5.6223,5.6222,5.6221,5.6221,5.5809,5.585,5.5887,5.5937,5.5965,5.5998,5.6038,5.6054,5.6097,5.6147,5.6146,5.6201,5.6231,5.6285,5.6304,5.6345,5.6328,5.6347,5.6351,5.6356,5.6361,5.6233,5.6353,5.6352,5.6352,5.6352,5.6351,0,5.5924,5.5948,5.5995,5.6046,5.6085,5.6073,5.6111,5.6143,5.6193,5.6224,5.6262,5.6319,5.6364,5.6383,5.6426,5.6455,5.645,5.6466,5.6464,5.6467,5.6374,5.6358,5.647,5.647,5.647,5.6469,5.6469,5.6469,5.5989,5.6059,5.6069,5.6151,5.6173,5.623,5.6252,5.6282,5.6307,5.6372,5.6411,5.6424,5.6449,5.6494,5.6534,5.6538,5.6554,5.6573,5.6574,5.6486,5.6474,5.6463,5.6448,5.6576,5.6577,5.6664,5.6665,5.6666]}]]